Hourly Data Report for October 24, 2014

All times are specified in Local Standard Time (LST). Add 1 hour to adjust for Daylight Saving Time where and when it is observed.

KAMLOOPS A
BRITISH COLUMBIA

50°42'09.000" N
120°26'55.000" W
345.30 m
1163781
71887
YKA

Download Data

Hourly Data (October 2014)
Hourly Data Report for October 24, 2014
Temp Definition
°C
Dew Point Temp Definition
°C
Rel Hum Definition
%
Wind Dir Definition
10's deg

Wind Spd Definition
km/h
Visibility Definition
km
Stn Press Definition
kPa
Hmdx Definition


Wind Chill Definition


Weather Definition


TIME
00:00 Legend Double Dagger 5.9 1.1 71 26 4 64.4 97.25     LegendNANA
01:00 Legend Double Dagger 4.8 0.8 75 34 5 64.4 97.33     Mainly Clear
02:00 Legend Double Dagger 4.0 0.0 75 27 4 64.4 97.42     LegendNANA
03:00 Legend Double Dagger 0.9 -1.7 83 36 3 64.4 97.47     LegendNANA
04:00 Legend Double Dagger 2.5 0.1 84 18 6 64.4 97.54     Clear
05:00 Legend Double Dagger 3.3 0.7 83 36 2 64.4 97.62     LegendNANA
06:00 Legend Double Dagger 1.5 -1.1 83 34 3 64.4 97.70     LegendNANA
07:00 Legend Double Dagger 1.8 -0.9 82 34 4 64.4 97.75     Mainly Clear
08:00 Legend Double Dagger 3.5 0.2 79 36 2 64.4 97.85     LegendNANA
09:00 Legend Double Dagger 5.4 0.8 72 29 3 64.4 97.88     LegendNANA
10:00 Legend Double Dagger 7.3 0.7 63 30 3 64.4 97.86     Mainly Clear
11:00 Legend Double Dagger 9.3 0.8 55 17 7 64.4 97.80     LegendNANA
12:00 Legend Double Dagger 10.9 0.4 48 11 6 64.4 97.74     LegendNANA
13:00 Legend Double Dagger 11.8 0.9 47 10 10 64.4 97.67     Mostly Cloudy
14:00 Legend Double Dagger 12.7 0.5 43 11 14 64.4 97.63     LegendNANA
15:00 Legend Double Dagger 12.9 0.7 43 9 20 64.4 97.61     LegendNANA
16:00 Legend Double Dagger 11.6 1.3 49 10 15 64.4 97.59     Mostly Cloudy
17:00 Legend Double Dagger 10.5 0.8 51 9 17 64.4 97.58     LegendNANA
18:00 Legend Double Dagger 9.5 1.9 59 10 15 64.4 97.54     LegendNANA
19:00 Legend Double Dagger 9.2 1.6 59 9 17 64.4 97.53     Mostly Cloudy
20:00 Legend Double Dagger 8.7 1.6 61 10 14 64.4 97.53     LegendNANA
21:00 Legend Double Dagger 8.1 2.2 66 10 13 64.4 97.49     LegendNANA
22:00 Legend Double Dagger 7.9 1.8 65 10 14 64.4 97.46     Cloudy
23:00 Legend Double Dagger 8.2 1.4 62 12 16 64.4 97.40     LegendNANA

Notes on Data Quality.

Legend

  • E = Estimated
  • M = Missing
  • NA = Not Available
  • ‡ = Partner data that is not subject to review by the National Climate Archives
Date modified: